GW5486 Weather Reports


time (UTC)temp
F
wind
direction
speed
knots
gust
knots
rain 1hr
in
rain 24hr
in
rain mn
in
humidity
%
barometer
mb
20260506202019 70 184 1.7 5.2 0.00 0.00 0.00 49 1020.1
20260506201529 69 16 1.7 4.3 0.00 0.00 0.00 48 1020.1
20260506201011 69 325 2.6 6.1 0.00 0.00 0.00 47 1020.2
20260506200508 69 98 1.7 6.1 0.00 0.00 0.00 47 1020.3
20260506200034 69 88 2.6 7.0 0.00 0.00 0.00 51 1020.5
20260506195511 69 103 1.7 7.0 0.00 0.00 0.00 49 1020.6
20260506195011 68 134 3.5 5.2 0.00 0.00 0.00 49 1020.5
20260506194528 68 300 0.9 3.5 0.00 0.00 0.00 49 1020.6
20260506194011 67 40 1.7 4.3 0.00 0.00 0.00 51 1020.7
20260506193511 67 9 0.9 7.0 0.00 0.00 0.00 49 1020.8
20260506193038 66 268 1.7 7.8 0.00 0.00 0.00 49 1020.8
20260506192510 66 351 3.5 7.0 0.00 0.00 0.00 49 1020.8
20260506192010 66 42 0.9 7.0 0.00 0.00 0.00 49 1021.0
20260506191530 66 81 2.6 5.2 0.00 0.00 0.00 51 1021.0
20260506191010 66 57 2.6 5.2 0.00 0.00 0.00 51 1021.1
20260506190512 65 15 1.7 5.2 0.00 0.00 0.00 51 1021.0
20260506190032 65 25 2.6 5.2 0.00 0.00 0.00 51 1021.1
20260506185514 64 110 3.5 6.1 0.00 0.00 0.00 50 1021.1
20260506185012 64 76 0.9 4.3 0.00 0.00 0.00 53 1021.2
20260506184537 64 131 1.7 7.0 0.00 0.00 0.00 51 1021.3
20260506184012 63 64 1.7 5.2 0.00 0.00 0.00 54 1021.3
20260506183512 62 327 1.7 4.3 0.00 0.00 0.00 52 1021.3
20260506183032 63 271 0.9 4.3 0.00 0.00 0.00 51 1021.3
20260506182511 63 257 0.9 7.8 0.00 0.00 0.00 52 1021.3
20260506182009 63 69 3.5 7.8 0.00 0.00 0.00 51 1021.2
20260506181538 62 66 1.7 4.3 0.00 0.00 0.00 53 1021.3
20260506181016 61 34 0.9 3.5 0.00 0.00 0.00 58 1021.5
20260506180514 61 246 0.9 4.3 0.00 0.00 0.00 56 1021.4
20260506180034 60 218 1.7 4.3 0.00 0.00 0.00 54 1021.4
20260506175511 60 183 0.9 4.3 0.00 0.00 0.00 55 1021.5
20260506175010 60 92 1.7 5.2 0.00 0.00 0.00 58 1021.5
20260506174536 60 209 1.7 7.8 0.00 0.00 0.00 56 1021.6
20260506174013 59 21 3.5 7.8 0.00 0.00 0.00 56 1021.5
20260506173510 60 348 1.7 4.3 0.00 0.00 0.00 56 1021.5
20260506173030 59 48 1.7 5.2 0.00 0.00 0.00 59 1021.5
20260506172512 59 350 2.6 5.2 0.00 0.00 0.00 57 1021.5
20260506172012 59 82 1.7 4.3 0.00 0.00 0.00 58 1021.4
20260506171534 58 51 0.9 4.3 0.00 0.00 0.00 59 1021.3
20260506171013 58 20 2.6 5.2 0.00 0.00 0.00 61 1021.5
20260506170511 57 117 2.6 5.2 0.00 0.00 0.00 60 1021.5
20260506170043 57 65 1.7 5.2 0.00 0.00 0.00 60 1021.4
20260506165512 57 44 1.7 5.2 0.00 0.00 0.00 60 1021.5
20260506165012 56 38 0.9 4.3 0.00 0.00 0.00 63 1021.6
20260506164545 56 98 0.9 4.3 0.00 0.00 0.00 63 1021.7
20260506164011 55 229 0.0 4.3 0.00 0.00 0.00 62 1021.6
20260506163509 55 42 1.7 4.3 0.00 0.00 0.00 62 1021.5
20260506163037 55 360 1.7 5.2 0.00 0.00 0.00 63 1021.5
20260506162512 55 331 0.9 3.5 0.00 0.00 0.00 64 1021.4
20260506162011 55 39 1.7 3.5 0.00 0.00 0.00 63 1021.5
20260506161535 54 222 0.9 2.6 0.00 0.00 0.00 62 1021.5
20260506161014 54 47 0.9 2.6 0.00 0.00 0.00 65 1021.5
20260506160511 53 21 1.7 5.2 0.00 0.00 0.00 66 1021.5
20260506160034 53 76 1.7 5.2 0.00 0.00 0.00 68 1021.4
20260506155511 53 74 0.9 3.5 0.00 0.00 0.00 69 1021.5
20260506155013 52 73 0.9 3.5 0.00 0.00 0.00 69 1021.6
20260506154532 52 72 0.9 3.5 0.00 0.00 0.00 70 1021.5
20260506154011 51 5 0.9 3.5 0.00 0.00 0.00 69 1021.5
20260506153511 51 79 0.9 3.5 0.00 0.00 0.00 71 1021.5
20260506153029 51 29 1.7 3.5 0.00 0.00 0.00 69 1021.5
20260506152512 51 44 0.9 3.5 0.00 0.00 0.00 72 1021.8
20260506152011 50 74 1.7 5.2 0.00 0.00 0.00 71 1021.8
20260506151538 50 59 1.7 5.2 0.00 0.00 0.00 72 1021.7
20260506151011 50 129 0.9 4.3 0.00 0.00 0.00 72 1021.8
20260506150510 50 80 0.9 3.5 0.00 0.00 0.00 73 1021.7
20260506150030 50 67 0.9 3.5 0.00 0.00 0.00 72 1021.8
20260506145510 50 34 1.7 3.5 0.00 0.00 0.00 71 1021.6
20260506145012 49 62 0.0 2.6 0.00 0.00 0.00 72 1021.4
20260506144530 49 17 0.9 3.5 0.00 0.00 0.00 72 1021.4
20260506144014 49 30 0.9 2.6 0.00 0.00 0.00 74 1021.4
20260506143512 49 84 0.0 2.6 0.00 0.00 0.00 75 1021.5
20260506143037 48 340 0.9 3.5 0.00 0.00 0.00 75 1021.5
20260506142513 48 5 0.9 3.5 0.00 0.00 0.00 76 1021.4
20260506142010 48 360 0.9 2.6 0.00 0.00 0.00 75 1021.4
20260506141540 47 40 0.0 3.5 0.00 0.00 0.00 77 1021.2
20260506141013 47 80 0.0 2.6 0.00 0.00 0.00 79 1021.2
20260506140511 46 61 0.9 2.6 0.00 0.00 0.00 80 1020.9
20260506140032 45 286 0.0 1.7 0.00 0.00 0.00 81 1020.9
20260506135510 44 286 0.0 1.7 0.00 0.00 0.00 83 1020.9
20260506135012 43 254 0.0 1.7 0.00 0.00 0.00 84 1020.9
20260506134532 42 246 0.0 2.6 0.00 0.00 0.00 85 1021.0
20260506134014 42 246 0.9 2.6 0.00 0.00 0.00 85 1021.0
20260506133512 42 223 0.0 1.7 0.00 0.00 0.00 85 1020.9
20260506133031 42 211 0.9 1.7 0.00 0.00 0.00 85 1020.9
20260506132510 42 211 0.0 0.9 0.00 0.00 0.00 85 1020.8
20260506132010 41 211 0.0 1.7 0.00 0.00 0.00 85 1020.9
20260506131533 41 211 0.9 1.7 0.00 0.00 0.00 85 1020.9
20260506131011 41 211 0.0 1.7 0.00 0.00 0.00 85 1020.8
20260506130510 41 211 0.9 2.6 0.00 0.00 0.00 85 1020.8
20260506130030 42 194 1.7 2.6 0.00 0.00 0.00 84 1020.8
20260506125514 42 258 0.0 1.7 0.00 0.00 0.00 85 1020.8
20260506125012 42 258 0.0 1.7 0.00 0.00 0.00 84 1020.8
20260506124530 42 258 0.9 2.6 0.00 0.00 0.00 85 1020.7
20260506124010 42 222 1.7 2.6 0.00 0.00 0.00 84 1020.6
20260506123510 42 257 0.0 1.7 0.00 0.00 0.00 83 1020.7
20260506123040 42 257 0.9 1.7 0.00 0.00 0.00 84 1020.6
20260506122512 42 229 0.0 1.7 0.00 0.00 0.00 84 1020.5
20260506122013 42 227 0.0 1.7 0.00 0.00 0.00 84 1020.5
20260506121540 42 239 0.0 1.7 0.00 0.00 0.00 83 1020.4
20260506121013 42 239 0.9 1.7 0.00 0.00 0.00 83 1020.4
20260506120515 42 250 0.9 1.7 0.00 0.00 0.00 85 1020.4
20260506120052 42 257 0.9 2.6 0.00 0.00 0.00 85 1020.4
20260506115512 42 242 0.9 2.6 0.00 0.00 0.00 85 1020.3
20260506115011 42 281 0.0 2.6 0.00 0.00 0.00 84 1020.3
20260506114534 42 227 0.9 2.6 0.00 0.00 0.00 85 1020.2
20260506114013 42 256 0.9 1.7 0.00 0.00 0.00 86 1020.2
20260506113512 41 259 0.9 2.6 0.00 0.00 0.00 85 1020.3
20260506113038 41 217 0.9 2.6 0.00 0.00 0.00 86 1020.2
20260506112512 41 219 0.0 1.7 0.00 0.00 0.00 86 1020.4
20260506112010 41 219 0.9 1.7 0.00 0.00 0.00 85 1020.3
20260506111541 41 219 0.0 1.7 0.00 0.00 0.00 85 1020.4
20260506111012 41 244 0.0 1.7 0.00 0.00 0.00 84 1020.2
20260506110511 42 291 0.9 1.7 0.00 0.00 0.00 85 1020.1
20260506110037 42 291 0.0 2.6 0.00 0.00 0.00 85 1020.0
20260506105511 41 291 0.9 2.6 0.00 0.00 0.00 86 1020.1
20260506105011 41 286 0.9 1.7 0.00 0.00 0.00 85 1019.9
20260506104547 41 198 0.9 1.7 0.00 0.00 0.00 86 1019.9
20260506104019 41 197 0.0 1.7 0.00 0.00 0.00 85 1020.0
20260506103512 41 271 0.0 2.6 0.00 0.00 0.00 86 1019.9
20260506103044 41 30 0.0 1.7 0.00 0.00 0.00 84 1020.1
20260506102518 41 95 0.9 1.7 0.00 0.00 0.00 84 1020.0
20260506102011 42 95 0.0 1.7 0.00 0.00 0.00 85 1019.9
20260506101535 42 167 0.0 1.7 0.00 0.00 0.00 84 1019.9
20260506101011 42 267 0.9 1.7 0.00 0.00 0.00 84 1019.7
20260506100516 42 242 0.0 1.7 0.00 0.00 0.00 85 1019.7
20260506100042 42 217 0.0 0.9 0.00 0.00 0.00 83 1019.8
20260506095513 42 217 0.0 1.7 0.00 0.00 0.00 83 1019.7
20260506095014 42 219 0.0 3.5 0.00 0.00 0.00 83 1019.8
20260506094538 42 205 1.7 3.5 0.00 0.00 0.00 83 1019.7
20260506094012 42 166 0.9 2.6 0.00 0.00 0.00 82 1019.7
20260506093513 43 283 0.9 1.7 0.00 0.00 0.00 82 1019.7
20260506093037 43 283 0.0 1.7 0.00 0.00 0.00 82 1019.7
20260506092511 43 283 0.9 1.7 0.00 0.00 0.00 82 1019.6
20260506092014 43 284 0.9 1.7 0.00 0.00 0.00 82 1019.6
20260506091537 43 252 0.0 0.9 0.00 0.00 0.00 81 1019.6
20260506091012 43 240 0.0 1.7 0.00 0.00 0.00 81 1019.5
20260506090510 42 240 0.0 1.7 0.00 0.00 0.00 82 1019.5
20260506090038 42 238 0.9 1.7 0.00 0.00 0.00 82 1019.6
20260506085512 42 214 0.0 1.7 0.00 0.00 0.00 81 1019.4
20260506085011 43 195 0.0 2.6 0.00 0.00 0.00 79 1019.6
20260506084610 43 190 1.7 2.6 0.00 0.00 0.00 78 1019.6
20260506084017 44 214 0.9 1.7 0.00 0.00 0.00 79 1019.6
20260506083512 44 259 0.9 1.7 0.00 0.00 0.00 78 1019.6
20260506083043 44 207 0.0 2.6 0.00 0.00 0.00 78 1019.6
20260506082513 43 185 0.9 3.5 0.00 0.00 0.00 78 1019.6
20260506082013 44 196 0.9 3.5 0.00 0.00 0.00 79 1019.7
20260506081549 44 230 0.0 3.5 0.00 0.00 0.00 78 1019.7
20260506081011 44 207 1.7 2.6 0.00 0.00 0.00 77 1019.8
20260506080514 44 206 0.9 3.5 0.00 0.00 0.00 77 1019.7
20260506073512 46 207 1.7 6.1 0.00 0.00 0.00 73 1019.5
20260506073038 46 190 2.6 8.7 0.00 0.00 0.00 72 1019.4
20260506072512 47 205 2.6 8.7 0.00 0.00 0.00 72 1019.3
20260506072013 46 196 0.0 2.6 0.00 0.00 0.00 72 1019.3
20260506071541 47 223 0.9 6.1 0.00 0.00 0.00 72 1019.3
20260506071010 47 182 1.7 6.1 0.00 0.00 0.00 72 1019.3
20260506070513 47 137 1.7 4.3 0.00 0.00 0.00 71 1019.2
20260506062512 48 178 1.7 6.1 0.00 0.00 0.00 70 1018.9
20260506062011 48 202 2.6 12.2 0.00 0.00 0.00 69 1018.9
20260506061535 48 138 0.9 7.0 0.00 0.00 0.00 68 1018.8
20260506061012 49 221 2.6 11.3 0.00 0.00 0.00 68 1018.8
20260506060515 49 258 2.6 13.0 0.00 0.00 0.00 67 1018.8
20260506051014 48 262 2.6 9.6 0.00 0.00 0.00 69 1018.1
20260506050514 49 347 1.7 9.6 0.00 0.00 0.00 68 1018.1
20260506045013 48 315 1.7 7.0 0.00 0.00 0.00 70 1018.3
20260506044539 48 191 1.7 7.0 0.00 0.00 0.00 71 1018.2
20260506044013 47 207 1.7 6.1 0.00 0.00 0.00 72 1018.2
20260506043511 47 188 0.9 10.4 0.00 0.00 0.00 72 1018.2
20260506043045 47 227 1.7 10.4 0.00 0.00 0.00 71 1018.1
20260506042512 47 187 2.6 6.1 0.00 0.00 0.00 71 1018.0
20260506042014 48 197 1.7 4.3 0.00 0.00 0.00 70 1018.0
20260506041543 48 207 0.9 7.0 0.00 0.00 0.00 69 1017.9
20260506041013 49 192 3.5 7.0 0.00 0.00 0.00 68 1017.8
20260506040512 49 259 1.7 8.7 0.00 0.00 0.00 68 1017.7
20260506040040 49 282 5.2 9.6 0.00 0.00 0.00 67 1017.7
20260506035513 49 283 5.2 9.6 0.00 0.00 0.00 68 1017.6
20260506035013 49 295 5.2 9.6 0.00 0.00 0.00 68 1017.8
20260506034537 49 273 5.2 12.2 0.00 0.00 0.00 69 1017.5
20260506034014 49 294 7.0 13.9 0.00 0.00 0.00 69 1017.5
20260506033514 49 304 6.1 12.2 0.00 0.00 0.00 68 1017.3
20260506033038 49 309 7.0 12.2 0.00 0.00 0.00 68 1017.3
20260506032514 49 279 7.0 11.3 0.00 0.00 0.00 68 1017.1
20260506032015 49 306 4.3 14.8 0.00 0.00 0.00 68 1017.2
20260506031541 49 279 6.1 14.8 0.00 0.00 0.00 67 1017.0
20260506031014 49 288 6.1 13.0 0.00 0.00 0.00 68 1017.0
20260506030516 49 279 6.1 12.2 0.00 0.00 0.00 67 1016.9
20260506030040 49 330 6.1 14.8 0.00 0.00 0.00 68 1016.9
20260506025514 49 261 7.8 14.8 0.00 0.00 0.00 66 1016.7
20260506025017 49 284 7.8 13.0 0.00 0.00 0.00 67 1016.7
20260506024539 49 257 7.0 14.8 0.00 0.00 0.00 68 1016.7
20260506024014 49 325 8.7 14.8 0.00 0.00 0.00 68 1016.6
20260506023516 49 288 7.0 12.2 0.00 0.00 0.00 68 1016.5
20260506023102 49 301 7.8 12.2 0.00 0.00 0.00 68 1016.2
20260506022513 49 246 7.0 11.3 0.00 0.00 0.00 67 1016.2
20260506022017 49 337 5.2 12.2 0.00 0.00 0.00 67 1016.1
20260506021600 49 273 7.8 13.9 0.00 0.00 0.00 67 1016.3
20260506021018 49 294 7.0 13.9 0.00 0.00 0.00 66 1016.1
20260506020516 49 277 8.7 13.9 0.00 0.00 0.00 67 1015.9
20260506020035 49 290 5.2 13.9 0.00 0.00 0.00 68 1016.0
20260506015512 49 274 6.1 13.9 0.00 0.00 0.00 67 1015.9
20260506015012 49 291 5.2 14.8 0.00 0.00 0.00 67 1015.7
20260506014544 49 338 7.8 15.6 0.00 0.00 0.00 68 1015.9
20260506014015 49 290 8.7 17.4 0.00 0.00 0.00 66 1015.9
20260506013516 49 274 8.7 17.4 0.00 0.00 0.00 66 1015.9
20260506013053 49 230 4.3 16.5 0.00 0.00 0.00 69 1016.0
20260506012512 49 253 7.0 16.5 0.00 0.00 0.00 68 1015.7
20260506012015 49 269 6.1 13.9 0.00 0.00 0.00 68 1015.8
20260506011537 49 250 6.1 14.8 0.00 0.00 0.00 69 1015.8
20260506011013 49 283 7.8 15.6 0.00 0.00 0.00 69 1015.7
20260506010513 50 310 7.0 15.6 0.00 0.00 0.00 68 1015.6
20260506010039 50 269 4.3 11.3 0.00 0.00 0.00 69 1015.8
20260506005514 49 315 7.0 20.0 0.00 0.00 0.00 69 1015.7
20260506005017 50 315 7.0 19.1 0.00 0.00 0.00 69 1015.4
20260506004537 50 302 6.1 14.8 0.00 0.00 0.00 69 1015.6
20260506004016 49 251 8.7 18.2 0.00 0.00 0.00 68 1015.4
20260506003517 49 265 10.4 18.2 0.00 0.00 0.00 69 1015.3
20260506003035 49 297 9.6 18.2 0.00 0.00 0.00 69 1015.3
20260506002516 49 278 8.7 15.6 0.00 0.00 0.00 68 1015.6
20260506002017 49 269 5.2 15.6 0.00 0.00 0.00 68 1015.6
20260506001542 49 282 5.2 11.3 0.00 0.00 0.00 72 1016.0
20260506001013 49 284 7.8 13.0 0.00 0.00 0.00 72 1015.9
20260506000515 49 300 7.0 13.9 0.00 0.00 0.00 73 1015.7
20260506000044 49 273 7.8 13.9 0.00 0.00 0.00 74 1015.6
20260505235516 50 315 7.0 11.3 0.00 0.00 0.00 72 1015.7
20260505235013 50 281 4.3 13.0 0.00 0.00 0.00 71 1015.7
20260505234551 50 261 7.0 16.5 0.00 0.00 0.00 70 1015.6
20260505234016 51 346 7.0 16.5 0.00 0.00 0.00 68 1015.6
20260505233514 51 309 4.3 12.2 0.00 0.00 0.00 67 1015.5
20260505233039 51 205 3.5 12.2 0.00 0.00 0.00 68 1015.5
20260505232512 50 17 4.3 12.2 0.00 0.00 0.00 70 1015.6
20260505232017 51 291 6.1 12.2 0.00 0.00 0.00 68 1015.7
20260505231603 50 242 4.3 12.2 0.00 0.00 0.00 70 1015.7
20260505231016 51 221 5.2 12.2 0.00 0.00 0.00 71 1015.7
20260505230514 50 189 3.5 13.0 0.00 0.00 0.00 71 1015.5
20260505230037 49 256 2.6 10.4 0.00 0.00 0.00 74 1015.4
20260505225516 49 300 3.5 11.3 0.00 0.00 0.00 75 1015.7
20260505225015 49 317 4.3 11.3 0.00 0.00 0.00 76 1015.8
20260505224546 49 71 2.6 7.8 0.00 0.00 0.00 77 1015.9
20260505224016 49 20 2.6 7.8 0.00 0.00 0.00 77 1015.8
20260505223516 49 340 1.7 10.4 0.00 0.00 0.00 76 1016.0
20260505223042 49 65 3.5 13.9 0.00 0.00 0.00 75 1016.1
20260505222517 49 333 7.0 13.9 0.00 0.00 0.00 74 1015.9
20260505222013 49 10 7.0 20.9 0.00 0.00 0.00 75 1016.0
20260505221537 50 346 7.8 20.9 0.00 0.00 0.00 73 1016.0
20260505221016 50 273 4.3 9.6 0.00 0.00 0.00 73 1016.0
20260505220519 50 341 3.5 13.9 0.00 0.00 0.00 74 1016.0
20260505220054 50 350 7.0 16.5 0.00 0.00 0.00 73 1016.1
20260505215515 51 293 5.2 12.2 0.00 0.00 0.00 70 1016.1
20260505215017 52 256 4.3 9.6 0.00 0.00 0.00 68 1016.1
20260505214550 52 5 3.5 11.3 0.00 0.00 0.00 68 1016.1
20260505214018 52 304 5.2 14.8 0.00 0.00 0.00 68 1016.0
20260505213517 51 286 5.2 14.8 0.00 0.00 0.00 67 1016.0
20260505213042 51 298 5.2 14.8 0.00 0.00 0.00 68 1016.1
20260505212514 51 297 8.7 14.8 0.00 0.00 0.00 67 1016.0
20260505212015 52 294 4.3 13.0 0.00 0.00 0.00 68 1016.0
20260505211545 52 108 0.9 13.0 0.00 0.00 0.00 69 1016.2
20260505211013 51 291 5.2 17.4 0.00 0.00 0.00 68 1016.0
20260505210513 51 290 7.8 17.4 0.00 0.00 0.00 67 1016.0
20260505210047 52 290 3.5 13.9 0.00 0.00 0.00 67 1016.0
20260505205518 52 196 3.5 13.0 0.00 0.00 0.00 67 1016.0
20260505205016 51 292 7.0 13.9 0.00 0.00 0.00 67 1016.0
20260505204544 52 11 7.0 13.9 0.00 0.00 0.00 67 1016.0
20260505204016 52 261 7.0 10.4 0.00 0.00 0.00 67 1016.1
20260505203514 52 223 6.1 17.4 0.00 0.00 0.00 68 1015.9
20260505203105 52 290 6.1 17.4 0.00 0.00 0.00 65 1015.7
20260505202514 53 269 7.8 14.8 0.00 0.00 0.00 64 1015.9